ASP567 CYBW-KBFI

Flight info

Callsign ASP567
Flight time 1h 20m
Altitude 40000
Route DUMRA DCT MEKPI DCT TWIGY DCT GEG GLASR3
Aircraft C25B/M-SDE2E3FGHRWXY/LB1

Departure

Time 2026-05-06 03:55
Airport Calgary / Springbank Airport (CYBW)

Arrival

Time 2026-05-06 05:15
Airport King County International Airport - Boeing Field (KBFI)
Time Latitude Longitude Altitude Speed Heading
2026-05-06 03:49 51.10304 -114.37525 3939 ft 0 kts 178°
2026-05-06 03:51 51.10300 -114.37561 3939 ft 6 kts 310°
2026-05-06 03:51 51.10339 -114.37601 3939 ft 7 kts
2026-05-06 03:51 51.10393 -114.37598 3939 ft 8 kts
2026-05-06 03:51 51.10452 -114.37598 3941 ft 8 kts
2026-05-06 03:52 51.10501 -114.37598 3941 ft 9 kts
2026-05-06 03:52 51.10577 -114.37597 3939 ft 12 kts 360°
2026-05-06 03:52 51.10662 -114.37596 3939 ft 13 kts
2026-05-06 03:52 51.10753 -114.37594 3939 ft 13 kts
2026-05-06 03:53 51.10848 -114.37594 3940 ft 14 kts
2026-05-06 03:53 51.10949 -114.37593 3940 ft 15 kts
2026-05-06 03:53 51.11053 -114.37592 3940 ft 15 kts
2026-05-06 03:53 51.11161 -114.37592 3940 ft 16 kts 354°
2026-05-06 03:54 51.11211 -114.37722 3940 ft 16 kts 271°
2026-05-06 03:54 51.11210 -114.37853 3940 ft 6 kts 264°
2026-05-06 03:54 51.11177 -114.37875 3940 ft 16 kts 177°
2026-05-06 03:54 51.10685 -114.37873 3941 ft 133 kts 180°
2026-05-06 03:55 51.09560 -114.37864 4789 ft 181 kts 178°
2026-05-06 03:55 51.08174 -114.37830 6133 ft 216 kts 177°
2026-05-06 03:55 51.06569 -114.37732 7452 ft 257 kts 177°
2026-05-06 03:55 51.04747 -114.37673 9083 ft 265 kts 179°
2026-05-06 03:56 51.02894 -114.37609 10950 ft 267 kts 178°
2026-05-06 03:56 51.01092 -114.37245 12769 ft 251 kts 168°
2026-05-06 03:56 50.99431 -114.36508 13782 ft 252 kts 168°
2026-05-06 03:56 50.97723 -114.35761 14536 ft 259 kts 173°
2026-05-06 03:57 50.95915 -114.35154 15091 ft 272 kts 176°
2026-05-06 03:57 50.94010 -114.34546 15652 ft 286 kts 175°
2026-05-06 03:57 50.92027 -114.33867 16227 ft 298 kts 172°
2026-05-06 03:57 50.89964 -114.33143 16798 ft 309 kts 169°
2026-05-06 03:58 50.87831 -114.32412 17360 ft 319 kts 168°
2026-05-06 03:58 50.85621 -114.31655 17908 ft 330 kts 166°
2026-05-06 03:58 50.83335 -114.30880 18413 ft 341 kts 166°
2026-05-06 03:58 50.80996 -114.30083 19071 ft 345 kts 166°
2026-05-06 03:59 50.78634 -114.29284 19721 ft 349 kts 166°
2026-05-06 03:59 50.76237 -114.28469 20341 ft 354 kts 166°
2026-05-06 03:59 50.73814 -114.27640 20953 ft 359 kts 166°
2026-05-06 03:59 50.71358 -114.26814 21584 ft 362 kts 166°
2026-05-06 04:00 50.68876 -114.25971 22153 ft 367 kts 166°
2026-05-06 04:00 50.66351 -114.25223 22702 ft 372 kts 174°
2026-05-06 04:00 50.63747 -114.25312 23265 ft 375 kts 187°
2026-05-06 04:00 50.61246 -114.26199 23813 ft 374 kts 202°
2026-05-06 04:01 50.58759 -114.27502 24354 ft 378 kts 202°
2026-05-06 04:01 50.56239 -114.28778 24879 ft 382 kts 202°
2026-05-06 04:01 50.53698 -114.30090 25403 ft 386 kts 202°
2026-05-06 04:01 50.51133 -114.31422 25910 ft 390 kts 203°
2026-05-06 04:02 50.48538 -114.32757 26404 ft 394 kts 203°
2026-05-06 04:02 50.45916 -114.34104 26888 ft 399 kts 202°
2026-05-06 04:02 50.43266 -114.35459 27386 ft 402 kts 203°
2026-05-06 04:02 50.40596 -114.36828 27941 ft 402 kts 203°
2026-05-06 04:03 50.37945 -114.38185 28597 ft 401 kts 203°
2026-05-06 04:03 50.35289 -114.39546 29166 ft 402 kts 204°
2026-05-06 04:03 50.32623 -114.40907 29772 ft 402 kts 204°
2026-05-06 04:03 50.29964 -114.42261 30364 ft 403 kts 204°
2026-05-06 04:04 50.27302 -114.43628 30927 ft 402 kts 205°
2026-05-06 04:04 50.24777 -114.45386 31509 ft 392 kts 218°
2026-05-06 04:04 50.22551 -114.47752 32117 ft 383 kts 229°
2026-05-06 04:04 50.20467 -114.50330 32728 ft 382 kts 229°
2026-05-06 04:05 50.18365 -114.52867 33395 ft 381 kts 228°
2026-05-06 04:05 50.16259 -114.55389 33984 ft 382 kts 229°
2026-05-06 04:05 50.14153 -114.57930 34564 ft 382 kts 229°
2026-05-06 04:05 50.12059 -114.60472 35160 ft 382 kts 229°
2026-05-06 04:06 50.09959 -114.62999 35774 ft 381 kts 228°
2026-05-06 04:06 50.07887 -114.65486 36358 ft 381 kts 228°
2026-05-06 04:06 50.05758 -114.68047 36926 ft 382 kts 228°
2026-05-06 04:06 50.03682 -114.70555 37487 ft 383 kts 228°
2026-05-06 04:07 50.01572 -114.73061 38075 ft 381 kts 227°
2026-05-06 04:07 49.99469 -114.75572 38601 ft 381 kts 227°
2026-05-06 04:07 49.97369 -114.78108 39066 ft 383 kts 227°
2026-05-06 04:07 49.95252 -114.80647 39566 ft 384 kts 227°
2026-05-06 04:08 49.93133 -114.83155 40081 ft 384 kts 226°
2026-05-06 04:08 49.90976 -114.85742 40106 ft 399 kts 226°
2026-05-06 04:08 49.86489 -114.91081 40122 ft 412 kts 225°
2026-05-06 04:09 49.81885 -114.96544 40124 ft 420 kts 225°
2026-05-06 04:09 49.77204 -115.02085 40126 ft 426 kts 225°
2026-05-06 04:10 49.72468 -115.07686 40116 ft 431 kts 225°
2026-05-06 04:10 49.67710 -115.13292 40110 ft 434 kts 225°
2026-05-06 04:11 49.62881 -115.18971 40111 ft 438 kts 224°
2026-05-06 04:11 49.58015 -115.24673 40092 ft 440 kts 224°
2026-05-06 04:12 49.53138 -115.30381 40077 ft 441 kts 225°
2026-05-06 04:12 49.48226 -115.36108 40072 ft 443 kts 224°
2026-05-06 04:13 49.43306 -115.41830 40066 ft 444 kts 224°
2026-05-06 04:13 49.38412 -115.47512 40062 ft 444 kts 224°
2026-05-06 04:14 49.33480 -115.53220 40065 ft 445 kts 224°
2026-05-06 04:14 49.28541 -115.58923 40053 ft 444 kts 224°
2026-05-06 04:15 49.23605 -115.64606 40049 ft 444 kts 224°
2026-05-06 04:15 49.18661 -115.70285 40054 ft 444 kts 224°
2026-05-06 04:16 49.13721 -115.75944 40041 ft 443 kts 224°
2026-05-06 04:16 49.08774 -115.81602 40019 ft 444 kts 224°
2026-05-06 04:17 49.03810 -115.87259 40008 ft 445 kts 224°
2026-05-06 04:17 48.98879 -115.92868 40000 ft 445 kts 224°
2026-05-06 04:18 48.93995 -115.98626 39995 ft 442 kts 227°
2026-05-06 04:18 48.89217 -116.04533 39989 ft 442 kts 226°
2026-05-06 04:19 48.84444 -116.10403 39984 ft 441 kts 226°
2026-05-06 04:19 48.79687 -116.16257 39979 ft 440 kts 226°
2026-05-06 04:20 48.74935 -116.22075 39977 ft 438 kts 226°
2026-05-06 04:20 48.70193 -116.27876 39980 ft 438 kts 226°
2026-05-06 04:21 48.66251 -116.32678 39977 ft 438 kts 226°
2026-05-06 04:21 48.61510 -116.38451 39978 ft 438 kts 226°
2026-05-06 04:22 48.56762 -116.44209 39979 ft 437 kts 226°
2026-05-06 04:23 48.49645 -116.52825 39974 ft 437 kts 226°
2026-05-06 04:23 48.44903 -116.58544 39972 ft 437 kts 226°
2026-05-06 04:24 48.40188 -116.64221 39980 ft 437 kts 225°
2026-05-06 04:24 48.35431 -116.69929 39978 ft 437 kts 225°
2026-05-06 04:25 48.30680 -116.75619 39975 ft 437 kts 225°
2026-05-06 04:25 48.25928 -116.81295 39977 ft 436 kts 225°
2026-05-06 04:26 48.21178 -116.86954 39979 ft 436 kts 225°
2026-05-06 04:26 48.16426 -116.92604 39969 ft 436 kts 225°
2026-05-06 04:27 48.11667 -116.98246 39966 ft 436 kts 225°
2026-05-06 04:27 48.06918 -117.03865 39967 ft 435 kts 225°
2026-05-06 04:28 48.02199 -117.09432 39961 ft 435 kts 225°
2026-05-06 04:28 47.97457 -117.15017 39968 ft 434 kts 225°
2026-05-06 04:29 47.92711 -117.20590 39962 ft 434 kts 225°
2026-05-06 04:29 47.87966 -117.26148 39962 ft 434 kts 225°
2026-05-06 04:30 47.83222 -117.31696 39963 ft 433 kts 225°
2026-05-06 04:30 47.78480 -117.37225 39961 ft 433 kts 225°
2026-05-06 04:31 47.73734 -117.42744 39960 ft 432 kts 225°
2026-05-06 04:31 47.69001 -117.48239 39963 ft 432 kts 225°
2026-05-06 04:32 47.64311 -117.53699 39961 ft 429 kts 227°
2026-05-06 04:32 47.62253 -117.56817 39956 ft 419 kts 238°
2026-05-06 04:32 47.60576 -117.60292 39954 ft 410 kts 247°
2026-05-06 04:33 47.58431 -117.67864 39950 ft 391 kts 265°
2026-05-06 04:33 47.57857 -117.75663 39951 ft 374 kts 281°
2026-05-06 04:34 47.58475 -117.83187 39953 ft 367 kts 286°
2026-05-06 04:34 47.59177 -117.90678 39955 ft 367 kts 286°
2026-05-06 04:35 47.59888 -117.98165 39956 ft 367 kts 286°
2026-05-06 04:35 47.60587 -118.05645 39952 ft 367 kts 286°
2026-05-06 04:36 47.61283 -118.13139 39952 ft 367 kts 286°
2026-05-06 04:36 47.61974 -118.20641 39953 ft 367 kts 286°
2026-05-06 04:37 47.62662 -118.28135 39943 ft 367 kts 286°
2026-05-06 04:37 47.63343 -118.35640 39943 ft 367 kts 286°
2026-05-06 04:38 47.64016 -118.43098 39934 ft 367 kts 285°
2026-05-06 04:38 47.64692 -118.50608 39933 ft 367 kts 285°
2026-05-06 04:39 47.65357 -118.58125 39924 ft 367 kts 285°
2026-05-06 04:39 47.66021 -118.65639 39924 ft 368 kts 285°
2026-05-06 04:40 47.66679 -118.73174 39921 ft 368 kts 285°
2026-05-06 04:40 47.67336 -118.80716 39914 ft 369 kts 285°
2026-05-06 04:41 47.67987 -118.88265 39914 ft 369 kts 285°
2026-05-06 04:41 47.68632 -118.95811 39914 ft 369 kts 285°
2026-05-06 04:42 47.69267 -119.03318 39914 ft 369 kts 285°
2026-05-06 04:42 47.69907 -119.10878 39914 ft 369 kts 285°
2026-05-06 04:43 47.70536 -119.18438 39914 ft 369 kts 284°
2026-05-06 04:43 47.71163 -119.25992 39915 ft 369 kts 284°
2026-05-06 04:44 47.71781 -119.33552 39915 ft 369 kts 284°
2026-05-06 04:44 47.72401 -119.41125 39915 ft 369 kts 284°
2026-05-06 04:45 47.73010 -119.48690 39500 ft 367 kts 284°
2026-05-06 04:45 47.73311 -119.52444 39014 ft 364 kts 284°
2026-05-06 04:45 47.73603 -119.56115 38545 ft 361 kts 284°
2026-05-06 04:45 47.73898 -119.59806 38068 ft 358 kts 284°
2026-05-06 04:46 47.74188 -119.63466 37596 ft 356 kts 284°
2026-05-06 04:46 47.74475 -119.67105 37124 ft 354 kts 284°
2026-05-06 04:46 47.74760 -119.70719 36656 ft 352 kts 284°
2026-05-06 04:46 47.75042 -119.74319 36189 ft 350 kts 283°
2026-05-06 04:47 47.75320 -119.77901 35730 ft 348 kts 283°
2026-05-06 04:47 47.75598 -119.81467 35272 ft 347 kts 283°
2026-05-06 04:47 47.75873 -119.85031 34800 ft 347 kts 283°
2026-05-06 04:47 47.76148 -119.88588 34344 ft 347 kts 283°
2026-05-06 04:48 47.76421 -119.92154 33876 ft 347 kts 282°
2026-05-06 04:48 47.76692 -119.95708 33415 ft 346 kts 282°
2026-05-06 04:48 47.76963 -119.99268 32955 ft 346 kts 282°
2026-05-06 04:48 47.77233 -120.02824 32493 ft 346 kts 282°
2026-05-06 04:49 47.77503 -120.06382 32034 ft 347 kts 282°
2026-05-06 04:49 47.77765 -120.09955 31569 ft 348 kts 282°
2026-05-06 04:49 47.78037 -120.13523 31103 ft 346 kts 282°
2026-05-06 04:49 47.78301 -120.17073 30653 ft 345 kts 282°
2026-05-06 04:50 47.78562 -120.20631 30197 ft 347 kts 282°
2026-05-06 04:50 47.78826 -120.24189 29743 ft 346 kts 282°
2026-05-06 04:50 47.79089 -120.27749 29286 ft 346 kts 282°
2026-05-06 04:50 47.79349 -120.31307 28825 ft 347 kts 282°
2026-05-06 04:51 47.79610 -120.34886 28364 ft 349 kts 282°
2026-05-06 04:51 47.79872 -120.38479 27900 ft 351 kts 282°
2026-05-06 04:51 47.80130 -120.42118 27431 ft 357 kts 282°
2026-05-06 04:51 47.80400 -120.45815 26949 ft 362 kts 282°
2026-05-06 04:52 47.80664 -120.49554 26467 ft 365 kts 281°
2026-05-06 04:52 47.80939 -120.53321 25980 ft 367 kts 281°
2026-05-06 04:52 47.81198 -120.57064 25508 ft 370 kts 281°
2026-05-06 04:52 47.81469 -120.60892 25038 ft 375 kts 281°
2026-05-06 04:53 47.81748 -120.64837 24537 ft 381 kts 281°
2026-05-06 04:53 47.82025 -120.68782 24034 ft 386 kts 281°
2026-05-06 04:53 47.82298 -120.72769 23521 ft 388 kts 281°
2026-05-06 04:53 47.82571 -120.76721 23016 ft 390 kts 281°
2026-05-06 04:54 47.82849 -120.80738 22501 ft 391 kts 281°
2026-05-06 04:54 47.83123 -120.84758 21989 ft 391 kts 281°
2026-05-06 04:54 47.83398 -120.88782 21471 ft 391 kts 280°
2026-05-06 04:54 47.83667 -120.92806 20959 ft 391 kts 280°
2026-05-06 04:55 47.83943 -120.96831 20441 ft 390 kts 280°
2026-05-06 04:55 47.84211 -121.00845 19921 ft 389 kts 280°
2026-05-06 04:55 47.84473 -121.04847 19416 ft 388 kts 279°
2026-05-06 04:55 47.84740 -121.08836 18907 ft 387 kts 279°
2026-05-06 04:56 47.85006 -121.12818 18403 ft 385 kts 279°
2026-05-06 04:56 47.85264 -121.16780 17902 ft 384 kts 279°
2026-05-06 04:56 47.85520 -121.20733 17393 ft 383 kts 279°
2026-05-06 04:56 47.85775 -121.24669 16882 ft 381 kts 279°
2026-05-06 04:57 47.86032 -121.28586 16331 ft 380 kts 279°
2026-05-06 04:57 47.86282 -121.32499 15816 ft 378 kts 278°
2026-05-06 04:57 47.86528 -121.36391 15313 ft 376 kts 278°
2026-05-06 04:57 47.86768 -121.40249 14839 ft 373 kts 278°
2026-05-06 04:58 47.87023 -121.44034 14349 ft 361 kts 278°
2026-05-06 04:58 47.87247 -121.47713 13869 ft 351 kts 278°
2026-05-06 04:58 47.87466 -121.51280 13417 ft 342 kts 278°
2026-05-06 04:58 47.87683 -121.54787 12958 ft 337 kts 278°
2026-05-06 04:59 47.87898 -121.58224 12527 ft 328 kts 278°
2026-05-06 04:59 47.88109 -121.61524 12101 ft 321 kts 278°
2026-05-06 04:59 47.88307 -121.64802 11678 ft 315 kts 277°
2026-05-06 04:59 47.88497 -121.68020 11263 ft 307 kts 277°
2026-05-06 05:00 47.88432 -121.71166 10884 ft 303 kts 263°
2026-05-06 05:00 47.87975 -121.74185 10615 ft 296 kts 258°
2026-05-06 05:00 47.87467 -121.77116 10346 ft 289 kts 258°
2026-05-06 05:00 47.86940 -121.79994 10076 ft 285 kts 258°
2026-05-06 05:01 47.86440 -121.82840 9814 ft 283 kts 258°
2026-05-06 05:01 47.85938 -121.85670 9553 ft 282 kts 258°
2026-05-06 05:01 47.85439 -121.88484 9290 ft 281 kts 258°
2026-05-06 05:01 47.84938 -121.91295 9027 ft 280 kts 258°
2026-05-06 05:02 47.84437 -121.94094 8767 ft 280 kts 258°
2026-05-06 05:02 47.83942 -121.96892 8503 ft 280 kts 258°
2026-05-06 05:02 47.83437 -121.99689 8240 ft 279 kts 258°
2026-05-06 05:02 47.82942 -122.02479 7984 ft 279 kts 257°
2026-05-06 05:03 47.82444 -122.05224 7723 ft 278 kts 257°
2026-05-06 05:03 47.82155 -122.08036 7455 ft 273 kts 272°
2026-05-06 05:03 47.82247 -122.10851 7204 ft 272 kts 273°
2026-05-06 05:03 47.82246 -122.13674 6951 ft 272 kts 272°
2026-05-06 05:04 47.82297 -122.16493 6696 ft 272 kts 274°
2026-05-06 05:04 47.82348 -122.19309 6441 ft 273 kts 273°
2026-05-06 05:04 47.82396 -122.22128 6186 ft 273 kts 273°
2026-05-06 05:04 47.82442 -122.24944 5933 ft 272 kts 272°
2026-05-06 05:05 47.82464 -122.27763 5675 ft 272 kts 270°
2026-05-06 05:05 47.82085 -122.30503 5419 ft 271 kts 253°
2026-05-06 05:05 47.81566 -122.33175 5179 ft 268 kts 258°
2026-05-06 05:05 47.81122 -122.35858 4929 ft 266 kts 256°
2026-05-06 05:06 47.80456 -122.38377 4676 ft 260 kts 240°
2026-05-06 05:06 47.79391 -122.40485 4446 ft 248 kts 229°
2026-05-06 05:06 47.78097 -122.42034 4227 ft 231 kts 213°
2026-05-06 05:06 47.76695 -122.43056 4021 ft 219 kts 200°
2026-05-06 05:07 47.75267 -122.43601 3836 ft 201 kts 194°
2026-05-06 05:07 47.73975 -122.44070 3669 ft 183 kts 195°
2026-05-06 05:07 47.72786 -122.44498 3510 ft 168 kts 194°
2026-05-06 05:07 47.71771 -122.44862 3393 ft 139 kts 194°
2026-05-06 05:08 47.70846 -122.45186 3264 ft 133 kts 195°
2026-05-06 05:08 47.70259 -122.45409 3183 ft 131 kts 195°
2026-05-06 05:08 47.69099 -122.45812 3024 ft 128 kts 194°
2026-05-06 05:08 47.68243 -122.46132 2906 ft 126 kts 194°
2026-05-06 05:09 47.67382 -122.46156 2769 ft 127 kts 161°
2026-05-06 05:09 47.66678 -122.45393 2667 ft 126 kts 135°
2026-05-06 05:09 47.66062 -122.44475 2560 ft 126 kts 137°
2026-05-06 05:09 47.65634 -122.43872 2484 ft 125 kts 136°
2026-05-06 05:10 47.65023 -122.42944 2364 ft 126 kts 135°
2026-05-06 05:10 47.64396 -122.42042 2244 ft 126 kts 136°
2026-05-06 05:10 47.63784 -122.41116 2127 ft 124 kts 137°
2026-05-06 05:10 47.63170 -122.40231 2010 ft 125 kts 136°
2026-05-06 05:11 47.62561 -122.39322 1895 ft 124 kts 137°
2026-05-06 05:11 47.61948 -122.38429 1806 ft 121 kts 136°
2026-05-06 05:11 47.61349 -122.37540 1689 ft 123 kts 137°
2026-05-06 05:11 47.60709 -122.36727 1528 ft 115 kts 150°
2026-05-06 05:12 47.60025 -122.36207 1374 ft 106 kts 156°
2026-05-06 05:12 47.59404 -122.35672 1231 ft 101 kts 149°
2026-05-06 05:12 47.58811 -122.35129 1077 ft 101 kts 151°
2026-05-06 05:12 47.58207 -122.34607 940 ft 101 kts 152°
2026-05-06 05:13 47.57588 -122.34103 815 ft 102 kts 153°
2026-05-06 05:13 47.56975 -122.33591 700 ft 101 kts 152°
2026-05-06 05:13 47.56362 -122.33080 580 ft 101 kts 152°
2026-05-06 05:13 47.55745 -122.32562 450 ft 102 kts 152°
2026-05-06 05:14 47.55126 -122.32046 334 ft 102 kts 152°
2026-05-06 05:14 47.54516 -122.31520 189 ft 101 kts 152°
2026-05-06 05:14 47.53925 -122.31021 43 ft 95 kts 151°
2026-05-06 05:14 47.53400 -122.30588 19 ft 76 kts 152°
2026-05-06 05:15 47.53086 -122.30318 20 ft 28 kts 149°
2026-05-06 05:15 47.53039 -122.30199 21 ft 11 kts 58°
2026-05-06 05:15 47.53078 -122.30096 24 ft 12 kts 60°
2026-05-06 05:15 47.53143 -122.30068 24 ft 12 kts 331°
2026-05-06 05:16 47.53226 -122.30138 26 ft 15 kts 330°
2026-05-06 05:16 47.53326 -122.30223 23 ft 18 kts 330°
2026-05-06 05:16 47.53442 -122.30318 22 ft 20 kts 330°
2026-05-06 05:16 47.53570 -122.30429 25 ft 22 kts 323°
2026-05-06 05:17 47.53681 -122.30551 23 ft 16 kts 332°
2026-05-06 05:17 47.53767 -122.30622 23 ft 10 kts 343°
2026-05-06 05:17 47.53816 -122.30594 25 ft 6 kts 47°
2026-05-06 05:17 47.53820 -122.30565 25 ft 2 kts 132°
2026-05-06 05:18 47.53810 -122.30552 23 ft 0 kts 142°
2026-05-06 05:19 47.53807 -122.30548 23 ft 0 kts 143°